Location: Maccacari
(45.1333°N, 11.1333°E)
Time: 08:04:09
(UTC+00:00)

KORONAS-FOTON - Pass Details

Date: 18 September 2020
Orbit: 505 x 532 km, 82.4° (Epoch: 29 October)

Event Time Altitude Azimuth Distance (km) Brightness Sun altitude
Rises 19:21:36 0° 352° (N) 2,687 7.9 -21.5°
Reaches altitude 10° 19:23:46 10° 353° (N) 1,793 6.9 -21.9°
Enters shadow 19:27:27 75° 29° (NNE) 558 3.8 -22.4°
